Bergman, AR

12:29 PM CDT on August 31, 2016 (GMT -0500)
Boone County

Weather History for KHRO - December, 2013

Change the Weather History Date:

Saturday, December 7, 2013

  Actual Average Record
Temperature  
Mean Temperature 13 °F 40 °F  
Max Temperature 20 °F 50 °F 74 °F (1966)
Min Temperature 5 °F 30 °F -6 °F (1950)
Degree Days  
Heating Degree Days 52 25  
Month to date heating degree days 185 168  
Since 1 July heating degree days 998 932  
Cooling Degree Days 0 0  
Month to date cooling degree days 0 0  
Year to date cooling degree days 1414 1416  
Moisture  
Dew Point 6 °F    
Average Humidity 72    
Maximum Humidity 87    
Minimum Humidity 56    
Precipitation  
Precipitation 0.00 in 0.12 in 1.16 in (1947)
Month to date precipitation 1.48 0.84  
Year to date precipitation 42.99 41.78  
Snow  
Snow 0.00 in 0.00 in 11.00 in (1917)
Month to date snowfall 9.0 0.0  
Since 1 July snowfall 9.0 0.5  
Snow Depth 9.00 in    
Sea Level Pressure  
Sea Level Pressure 30.55 in    
Wind  
Wind Speed 4 mph (NNE)    
Max Wind Speed 14 mph    
Max Gust Speed 17 mph    
Visibility 10 miles    
Events      
T = Trace of Precipitation, MM = Missing Value Source: NWS Daily Summary

Daily Weather History Graph

Daily Weather History Graph

Search for Another Location

Airport or City:

Trip Planner

Search our weather history database for the weather conditions in past years. The results will help you decide how hot, cold, wet, or windy it might be!

Date:

Astronomy

Dec. 07, 2013 Rise Set
Actual Time 7:10 AM CST 4:57 PM CST
Civil Twilight 6:42 AM CST 5:26 PM CST
Nautical Twilight 6:10 AM CST 5:58 PM CST
Astronomical Twilight 5:39 AM CST 6:29 PM CST
Moon 11:02 AM CST (12/7) 10:32 PM CST (12/7)
Length of Visible Light 10h 43m
Length of Day
9h 46m
Waxing Crescent, 29% of the Moon is Illuminated
Dec 7
Waxing Crescent
Dec 9
First Quarter
Dec 17
Full
Dec 25
Last Quarter
Jan 1
New

Hourly Weather History & Observations

Time (CST) Temp. Windchill Dew Point Humidity Pressure Visibility Wind Dir Wind Speed Gust Speed Precip Events Conditions
12:53 AM 14.0 °F 5.1 °F 7.0 °F 74% 30.56 in 10.0 mi North 5.8 mph - N/A   Overcast
1:53 AM 12.0 °F 5.9 °F 6.1 °F 77% 30.58 in 10.0 mi NW 3.5 mph - N/A   Clear
2:53 AM 10.9 °F 2.9 °F 5.0 °F 77% 30.59 in 10.0 mi NW 4.6 mph - N/A   Clear
3:53 AM 9.0 °F 2.4 °F 3.0 °F 77% 30.60 in 10.0 mi WNW 3.5 mph - N/A   Clear
4:53 AM 8.1 °F 1.4 °F 1.9 °F 76% 30.61 in 10.0 mi WNW 3.5 mph - N/A   Clear
5:53 AM 7.0 °F 0.1 °F 1.9 °F 80% 30.61 in 10.0 mi WNW 3.5 mph - N/A   Clear
6:53 AM 5.0 °F -2.1 °F 1.0 °F 84% 30.63 in 10.0 mi West 3.5 mph - N/A   Clear
7:53 AM 7.0 °F 0.1 °F 1.9 °F 80% 30.66 in 10.0 mi WNW 3.5 mph - N/A   Clear
8:53 AM 10.0 °F - 1.9 °F 70% 30.67 in 10.0 mi Calm Calm - N/A   Clear
9:53 AM 12.0 °F 4.1 °F 3.0 °F 67% 30.67 in 10.0 mi NNE 4.6 mph - N/A   Clear
10:53 AM 15.1 °F - 3.9 °F 61% 30.66 in 10.0 mi Calm Calm - N/A   Clear
11:53 AM 16.0 °F 10.4 °F 5.0 °F 62% 30.62 in 10.0 mi East 3.5 mph - N/A   Clear
12:53 PM 19.0 °F 13.9 °F 6.1 °F 57% 30.60 in 10.0 mi NNE 3.5 mph - N/A   Clear
1:53 PM 19.0 °F 8.2 °F 8.1 °F 62% 30.53 in 10.0 mi NE 9.2 mph - N/A   Clear
2:53 PM 18.0 °F 9.8 °F 8.1 °F 65% 30.49 in 10.0 mi ENE 5.8 mph - N/A   Clear
3:53 PM 18.0 °F 9.8 °F 8.1 °F 65% 30.49 in 10.0 mi NE 5.8 mph - N/A   Clear
4:53 PM 18.0 °F 9.8 °F 9.0 °F 68% 30.49 in 10.0 mi NE 5.8 mph - N/A   Partly Cloudy
5:53 PM 19.0 °F - 10.0 °F 68% 30.51 in 10.0 mi Calm Calm - N/A   Mostly Cloudy
6:53 PM 19.0 °F 13.9 °F 10.9 °F 71% 30.49 in 10.0 mi ENE 3.5 mph - N/A   Overcast
7:53 PM 19.0 °F 11.1 °F 10.9 °F 71% 30.47 in 10.0 mi ESE 5.8 mph - N/A   Mostly Cloudy
8:53 PM 19.9 °F 14.9 °F 10.0 °F 65% 30.45 in 10.0 mi East 3.5 mph - N/A   Overcast
9:53 PM 19.9 °F 10.1 °F 10.0 °F 65% 30.41 in 10.0 mi ESE 8.1 mph - N/A   Overcast
10:53 PM 19.9 °F 11.1 °F 9.0 °F 62% 30.40 in 10.0 mi ESE 6.9 mph - N/A   Overcast
11:53 PM 19.0 °F 9.0 °F 10.0 °F 68% 30.36 in 10.0 mi ESE 8.1 mph - N/A   Overcast